Wind_Speed
16 16 16 14 12 12 12 12 11 11 10 9 8 6 5 5 4 3 2 2 2 3 3 4 4 4 4 5 5 3 1 2 5 7 8 10 11 10 10 9 9 8 8 7 8 9 9 9 11 12 14 15 16 16 17 18 19 19 19 19 20 21 22 22 22 23 24 24 23 22 21 20 20 20 18 17 17 17 17 20 23 21 18 15 14
14 15 16 12 10 11 12 12 11 11 10 10 9 7 7 6 5 4 3 3 3 3 4 4 4 4 3 4 4 2 1 3 5 8 9 11 11 11 10 9 9 8 8 7 8 8 8 9 10 12 13 14 16 16 17 18 18 18 18 19 19 20 22 23 25 25 26 26 24 23 23 22 21 21 19 18 17 16 17 19 22 21 18 15 13
14 14 14 11 11 12 12 12 12 12 11 10 9 8 7 7 6 5 4 4 4 4 4 4 4 4 4 3 3 2 1 3 6 8 9 11 11 11 10 9 9 9 8 7 7 8 8 8 9 10 12 14 16 16 16 17 17 17 17 18 19 20 22 23 26 27 28 28 26 24 23 23 23 22 21 20 18 17 17 20 23 20 17 15 13
15 13 13 11 12 13 13 13 13 13 12 11 10 9 8 7 6 6 5 5 5 5 5 5 5 4 4 3 3 2 2 4 6 8 9 11 11 11 11 10 9 8 8 7 7 7 7 7 8 10 12 14 15 15 15 16 17 17 17 17 18 19 21 23 26 27 29 30 29 26 24 23 24 23 22 21 20 18 18 20 21 19 17 16 14
13 11 11 11 12 13 14 14 13 13 12 12 10 9 9 7 6 6 6 6 6 6 6 6 5 5 4 3 3 3 3 4 6 8 10 11 11 11 11 10 9 8 8 7 7 7 7 7 8 9 11 13 14 14 14 15 17 16 16 16 17 18 20 23 25 26 28 31 32 29 26 24 23 23 23 22 21 20 19 19 19 18 17 15 14
12 11 11 11 11 12 13 14 14 14 13 12 11 10 8 7 6 6 6 6 6 7 7 6 6 6 5 4 4 4 3 4 6 8 10 11 11 11 11 11 10 9 8 7 7 7 7 7 7 8 10 13 13 13 13 14 16 15 15 15 16 17 19 21 23 26 28 30 32 31 29 27 25 23 23 23 22 21 20 20 19 18 16 15 14
13 12 12 11 12 12 14 14 15 15 14 13 11 10 8 7 6 6 6 6 7 7 7 7 7 7 7 6 5 5 4 5 6 8 9 10 11 11 11 11 10 9 8 8 8 8 7 7 7 8 10 12 12 12 12 13 14 14 14 14 15 16 18 20 21 25 27 29 30 31 30 29 28 26 24 23 22 22 21 21 19 18 17 16 16
14 14 14 13 13 14 14 15 15 15 14 13 11 9 8 7 6 6 6 6 7 7 7 8 8 8 8 7 7 6 6 6 7 8 9 10 11 11 11 10 10 9 9 8 8 8 7 7 7 8 9 11 11 11 11 11 12 13 13 14 15 16 17 18 20 23 26 27 29 31 30 29 29 29 28 27 25 23 22 21 20 19 18 18 17
16 16 16 15 15 15 15 15 15 15 14 12 11 9 8 7 6 6 6 6 6 7 8 8 9 9 10 9 8 8 7 7 7 8 9 10 12 12 11 11 10 10 10 9 9 8 7 7 7 7 8 10 11 10 9 9 10 11 12 13 14 15 16 17 18 21 23 26 28 30 30 29 29 29 29 29 28 27 26 24 23 22 20 20 19
17 17 17 16 15 15 15 15 15 15 13 12 10 9 7 7 6 6 6 5 6 6 8 9 9 10 10 10 9 9 9 8 8 9 9 11 13 13 13 13 12 12 11 10 9 9 8 7 7 7 8 9 10 10 8 8 8 8 9 11 12 14 15 16 17 19 21 24 26 27 28 28 28 28 29 29 29 29 28 27 27 26 25 24 23
18 17 17 16 16 15 15 15 15 14 13 11 9 8 7 6 6 5 4 4 5 6 8 9 10 10 10 10 10 11 10 10 9 9 10 11 13 13 14 14 14 13 12 11 10 10 9 9 8 8 8 9 9 9 7 7 7 6 7 8 10 12 13 15 16 18 20 22 23 25 26 26 26 27 27 28 28 28 28 28 28 27 27 26 26
19 17 17 17 17 17 16 15 14 14 12 10 8 7 6 5 5 4 3 4 5 6 8 9 10 10 11 11 11 12 12 12 11 10 11 12 13 14 15 15 15 14 13 12 11 11 10 10 9 9 9 9 10 9 7 6 6 5 5 6 8 10 12 13 15 16 18 20 21 22 23 24 24 25 25 26 26 26 27 26 26 26 26 26 25
18 17 17 17 17 16 15 14 14 12 10 9 7 6 5 5 4 3 3 4 5 7 7 9 10 11 11 11 12 13 13 13 13 12 13 13 14 15 16 16 16 15 15 14 13 12 11 11 10 9 9 9 9 10 8 6 5 4 4 5 6 8 10 12 13 15 16 18 19 21 22 22 22 23 23 24 24 24 24 25 25 25 25 24 24
13 13 15 15 15 15 14 13 12 10 8 7 6 6 5 4 3 3 4 5 6 7 8 9 10 10 11 12 12 13 13 14 13 13 14 13 14 15 17 18 17 17 16 15 14 13 12 11 11 10 9 9 9 10 9 6 5 4 4 4 5 7 8 10 12 13 15 16 17 19 20 20 20 21 21 22 22 22 22 22 22 23 23 23 23
10 10 12 13 14 14 13 12 10 9 7 6 5 5 4 4 3 4 5 6 6 7 8 9 10 10 11 12 12 13 13 14 14 14 14 13 14 15 17 19 19 18 16 16 15 14 13 13 12 12 11 10 10 10 10 8 6 5 4 4 5 5 6 8 10 11 12 13 14 16 17 18 18 19 19 20 20 21 20 20 20 20 21 21 22
11 10 11 12 13 13 12 10 9 7 6 5 5 4 4 4 4 5 6 6 7 8 8 9 10 10 11 11 12 12 13 14 14 14 13 13 14 15 17 18 19 18 17 16 15 15 15 15 14 14 13 12 11 11 10 10 8 7 6 5 5 5 5 6 7 8 9 10 11 12 14 15 15 16 16 17 18 19 19 19 18 18 18 19 19
13 12 12 13 12 11 10 8 7 6 6 5 5 4 4 5 6 6 7 7 8 9 9 10 10 11 11 11 11 11 12 13 14 13 13 13 13 13 14 16 18 19 18 17 16 15 15 16 15 15 14 14 13 12 11 10 10 9 7 6 5 5 4 5 5 6 6 7 8 9 10 11 12 12 13 14 15 16 16 17 17 17 17 17 17
14 14 14 13 11 10 8 7 6 5 5 4 4 5 5 6 6 7 7 8 8 9 10 10 10 10 10 11 11 12 12 12 12 12 12 11 12 12 12 13 16 18 19 18 17 16 16 15 16 16 16 15 14 14 13 11 10 10 9 7 6 6 5 5 5 4 3 4 5 6 6 7 8 9 10 11 12 13 13 14 14 15 15 15 15
14 15 14 12 10 9 8 6 5 5 4 3 4 4 5 5 5 5 7 7 8 9 9 10 10 10 10 11 12 12 11 11 10 10 10 10 10 9 8 9 12 15 17 18 18 17 16 16 17 18 18 16 16 15 15 14 12 11 11 10 8 7 6 5 5 5 4 3 2 2 3 4 5 6 8 8 9 10 11 11 12 12 12 13 13
15 15 13 11 10 9 7 6 5 4 2 2 2 3 3 4 4 5 6 7 8 8 9 9 10 10 11 11 12 12 12 11 10 9 8 8 8 7 7 7 8 11 14 16 17 17 16 15 16 18 19 19 18 18 18 16 15 14 13 12 11 10 9 7 7 6 6 5 4 2 1 1 2 4 5 6 7 8 9 9 10 10 10 10 10
15 14 11 10 9 8 7 5 4 3 2 2 2 3 3 4 5 6 7 7 8 8 9 9 10 10 12 12 13 13 12 11 10 9 9 8 8 8 8 8 9 10 11 13 14 15 14 13 13 16 20 22 21 20 20 19 17 16 15 14 13 12 11 10 10 9 8 7 6 6 5 4 3 2 3 5 6 6 7 8 8 8 8 8 8
14 12 11 10 9 8 6 4 3 3 2 2 3 3 4 5 6 6 7 7 7 8 8 9 10 11 12 13 14 12 11 10 10 10 10 10 10 10 10 11 11 12 11 10 10 10 10 9 11 15 19 22 22 22 22 21 19 18 18 17 16 15 14 13 12 12 10 9 9 8 8 7 6 5 5 6 7 7 6 7 7 7 7 7 7
12 10 10 11 10 7 6 5 4 3 3 3 3 4 5 6 6 7 7 7 7 8 9 10 11 12 13 13 13 11 10 10 11 11 12 12 12 11 11 11 11 11 10 9 7 7 7 9 11 14 17 19 20 22 23 22 20 20 20 19 19 18 16 15 14 14 13 12 11 11 10 10 10 9 8 8 8 8 8 7 7 6 6 6 6
11 9 10 10 10 8 6 5 4 3 3 3 4 5 6 7 7 7 7 7 8 9 10 11 12 12 13 12 11 10 10 11 11 12 12 13 12 11 10 9 9 8 7 7 7 7 8 9 10 11 13 15 16 19 22 23 22 20 20 21 20 20 19 17 16 15 15 15 14 14 13 13 13 13 12 11 10 10 9 9 9 8 7 7 6
11 10 10 10 9 7 5 4 2 2 2 2 4 5 6 6 7 7 7 8 9 10 11 12 12 12 12 11 10 9 10 11 11 11 11 11 10 9 8 8 8 7 7 7 8 9 10 9 9 9 11 11 12 15 18 21 22 21 20 21 21 20 19 19 18 18 18 17 17 16 15 15 15 15 14 14 13 12 11 11 11 10 9 9 8
12 11 10 10 7 6 4 3 2 2 2 2 4 5 5 6 7 7 7 9 10 11 12 12 12 12 11 11 10 10 11 11 11 10 10 9 9 8 8 8 8 8 9 9 9 9 9 8 8 8 9 9 10 12 13 16 19 19 19 20 20 20 19 19 19 19 19 19 18 17 17 17 17 17 16 16 15 14 13 13 13 12 12 11 9
13 11 10 9 7 5 4 2 2 2 2 3 5 5 6 7 7 7 8 9 11 11 12 12 12 11 12 12 12 12 12 11 10 10 10 10 10 10 10 10 9 10 11 10 10 9 7 7 8 8 8 8 9 10 11 13 14 15 15 17 18 19 19 19 19 19 19 19 19 18 18 17 17 17 17 16 16 15 14 13 13 13 12 12 11
12 11 10 8 7 5 4 2 2 3 3 5 6 7 7 7 7 7 8 10 11 12 12 12 11 12 13 13 13 12 11 11 10 10 11 12 12 12 13 13 13 13 12 11 10 8 7 7 8 8 8 8 8 9 10 11 13 12 11 12 14 16 18 19 19 18 18 18 19 18 18 18 17 17 17 16 16 15 14 14 13 12 12 11 10
11 9 9 8 7 6 4 3 3 4 5 7 8 8 8 8 8 8 9 10 12 12 13 12 11 13 14 14 13 12 11 11 11 12 14 14 15 15 15 15 14 14 13 11 9 8 8 8 9 10 10 10 10 10 10 11 12 11 9 8 10 13 16 18 18 18 18 18 19 18 18 18 18 17 16 16 16 16 15 14 13 12 12 11 10
12 11 10 9 7 5 4 4 4 5 7 9 9 9 9 8 9 8 9 11 12 13 13 12 12 14 15 14 13 12 11 11 12 13 14 14 14 14 14 13 13 13 11 10 9 9 9 10 11 11 12 12 12 11 11 11 11 11 10 8 8 10 12 14 15 16 17 17 18 17 17 17 17 16 15 15 15 15 15 14 14 14 13 13 12
15 14 12 9 8 6 5 6 7 8 9 11 10 10 9 9 8 8 9 11 12 13 14 13 14 15 14 14 13 12 11 12 12 13 13 13 13 13 13 12 12 11 10 9 9 9 10 10 11 11 11 10 11 11 10 10 11 11 10 9 8 9 10 11 13 14 15 16 16 16 16 16 16 16 15 15 15 15 15 15 15 15 15 15 14
17 14 12 10 8 7 8 9 9 10 11 11 10 9 9 8 8 8 9 11 13 14 15 15 15 15 14 14 13 12 12 12 12 12 12 12 12 13 13 13 12 11 10 9 10 10 11 11 11 10 9 8 9 9 9 9 9 10 10 9 8 9 10 11 11 12 13 14 16 16 15 15 15 15 14 14 15 15 15 15 15 15 15 15 15
15 14 12 10 10 10 10 11 11 11 11 10 9 8 8 8 8 9 10 11 13 15 16 16 16 15 15 15 14 13 13 13 12 11 11 11 12 12 13 13 12 11 10 10 11 11 11 11 10 9 8 8 8 7 7 7 8 9 9 9 9 10 10 10 10 11 12 13 14 15 15 13 12 12 13 13 14 14 15 14 14 14 14 14 13
14 14 12 12 12 12 13 13 12 12 10 8 8 8 8 7 8 9 9 11 14 15 16 16 16 16 16 15 14 14 13 12 12 10 10 10 10 11 12 12 12 11 10 10 10 11 10 10 9 9 8 8 8 7 6 6 7 8 8 9 10 10 10 10 11 11 12 12 12 12 12 12 10 9 10 11 12 12 13 13 12 12 13 12 11
18 17 15 15 15 15 14 13 12 11 9 7 8 8 7 7 8 8 10 11 13 15 16 16 15 15 15 14 14 13 13 13 12 11 9 9 10 10 12 12 11 10 9 10 10 10 10 9 8 8 8 8 8 7 7 8 8 8 8 9 10 11 12 12 11 10 10 11 12 11 11 11 9 8 8 8 9 10 11 11 11 11 11 10 9
21 18 16 16 16 15 14 13 12 10 8 8 9 9 8 8 9 10 11 12 13 15 15 15 14 13 13 13 13 13 13 13 12 11 10 10 10 11 11 12 11 10 9 9 10 10 10 9 8 8 8 8 8 8 8 8 8 8 8 9 10 12 12 11 10 11 10 10 11 11 10 11 10 8 8 8 9 10 10 10 10 10 9 8 7
14 15 15 15 16 15 13 12 12 10 8 9 10 10 10 10 11 11 12 13 13 14 14 13 12 11 11 12 12 13 13 13 12 11 11 11 11 10 10 11 10 9 8 9 10 10 10 9 8 8 8 8 8 9 8 8 7 6 6 7 9 10 10 9 9 10 10 11 11 10 9 10 8 7 7 7 7 7 8 8 8 8 7 7 7
4 9 12 13 13 13 13 13 12 10 9 11 11 11 11 12 13 13 13 13 13 12 12 11 11 11 11 12 13 13 13 13 11 10 11 11 10 10 9 10 9 8 8 9 10 11 10 8 7 7 7 8 9 8 8 8 6 5 5 6 7 7 7 6 7 9 9 9 9 8 7 6 5 5 5 5 4 5 5 6 7 7 6 6 6
4 5 8 9 9 9 11 13 12 10 11 12 12 12 13 14 13 13 13 12 12 11 10 10 10 11 11 12 12 12 12 11 10 10 12 12 11 11 10 10 10 9 8 8 9 10 9 8 7 7 7 7 8 8 7 7 6 6 6 6 6 5 5 6 8 9 7 5 6 6 5 4 3 3 4 3 3 4 5 6 6 6 5 5 5
10 7 5 5 8 11 12 12 12 11 11 13 13 13 14 14 13 12 11 10 10 10 10 10 9 9 9 9 8 7 7 8 9 10 12 12 12 12 11 11 10 9 8 7 7 8 8 7 7 6 6 7 7 7 7 6 6 6 6 6 6 5 5 6 9 8 4 4 5 5 4 3 3 3 3 3 4 4 5 6 6 6 4 4 4
13 12 6 5 10 16 17 13 12 11 11 12 13 13 14 13 12 11 10 10 9 9 10 9 8 7 6 5 4 3 3 3 4 6 7 9 10 11 11 10 9 8 7 6 7 8 8 7 7 6 6 6 7 7 7 6 6 6 7 7 6 6 5 7 7 4 2 4 5 4 3 3 4 4 4 4 4 5 5 5 6 6 5 4 4
8 10 3 6 12 17 20 16 12 10 11 13 14 14 14 12 11 11 11 11 11 11 11 10 8 6 4 3 2 1 1 0 1 1 2 4 6 8 9 9 8 8 6 6 7 8 8 8 7 7 6 7 7 6 6 6 7 7 7 7 6 6 6 6 6 2 1 4 5 4 3 4 6 5 5 5 5 5 5 5 6 6 4 4 5
2 6 2 6 11 17 20 18 14 11 12 14 15 16 15 14 13 13 13 13 13 13 12 10 7 5 4 3 2 1 1 1 2 2 2 1 2 4 6 7 7 7 7 7 7 7 7 7 7 8 7 7 7 6 6 6 6 6 6 6 6 5 5 5 4 3 3 5 4 1 1 4 6 5 4 4 4 4 4 5 6 5 4 4 4
3 2 3 2 9 16 19 18 15 12 13 16 17 17 16 16 16 15 15 15 15 14 11 8 7 6 4 3 2 1 0 1 2 3 3 3 2 1 2 4 5 5 6 6 6 7 7 7 7 8 8 8 7 7 6 6 6 5 5 5 5 4 3 3 3 2 3 5 4 4 3 5 5 4 3 3 4 4 4 5 4 3 3 3 3
4 3 1 2 7 15 18 18 15 14 15 17 18 19 18 18 16 15 15 15 15 12 9 8 6 5 3 2 2 1 0 0 1 2 3 3 3 2 2 3 3 3 4 4 5 6 7 8 8 9 9 8 8 7 7 7 6 5 5 4 4 4 3 2 2 1 2 5 5 4 5 5 4 4 4 4 4 4 4 3 2 2 2 2 2
5 6 6 5 9 15 19 18 17 16 17 18 19 19 18 17 15 14 14 14 13 11 9 8 6 5 3 2 2 2 1 1 1 1 2 2 2 3 3 4 4 3 3 3 5 6 7 8 9 10 10 10 9 8 8 8 7 7 6 5 4 4 3 3 3 3 3 4 4 3 4 5 4 3 3 3 4 3 3 2 2 2 1 1 2
6 9 9 10 11 16 20 20 19 18 18 18 19 19 18 17 15 13 13 13 12 11 9 7 5 5 4 3 3 2 2 2 3 2 2 2 3 3 4 4 5 5 4 4 4 6 8 8 9 10 10 10 9 9 9 9 9 8 8 7 5 4 4 3 3 4 3 4 4 3 4 4 3 2 1 2 2 2 2 2 1 1 2 3 4
7 9 11 12 14 18 22 22 20 20 19 18 18 19 18 17 15 14 15 15 13 11 8 5 4 4 4 4 3 2 2 4 4 3 3 3 4 4 5 6 6 6 6 5 5 6 7 8 9 9 10 10 9 9 9 10 10 10 9 8 7 6 5 4 4 3 2 2 2 3 3 1 1 1 1 1 1 0 1 1 3 4 5 6 7
8 9 11 12 14 20 24 23 21 20 19 18 18 19 19 17 16 16 17 17 14 10 8 5 4 3 2 2 1 2 4 5 5 4 5 5 6 7 7 8 8 8 8 7 6 5 6 8 9 10 10 10 10 9 9 10 10 10 9 9 8 7 6 6 5 3 2 2 2 3 3 1 1 2 2 1 1 1 1 3 5 6 8 9 9
8 10 12 12 15 21 24 23 21 20 19 18 18 19 18 17 17 18 19 17 13 9 7 5 4 2 2 2 2 3 5 5 6 6 7 8 8 9 10 10 10 9 9 7 6 6 6 8 9 10 11 11 10 9 9 10 10 10 9 9 8 8 7 7 6 5 4 3 2 3 3 3 3 4 4 4 3 2 3 4 6 7 9 9 9
9 12 14 14 17 22 25 23 21 21 20 18 18 18 18 17 18 20 19 16 12 8 6 5 3 2 2 2 3 5 7 7 7 8 9 11 11 11 11 11 10 9 8 8 7 7 7 8 9 10 11 11 11 11 10 10 10 9 9 9 8 8 8 8 8 7 6 5 4 4 5 4 4 5 5 5 5 4 4 4 5 7 7 7 7
Wind_Direction
228 223 216 206 196 194 193 187 182 182 183 184 186 189 193 199 202 201 207 234 255 282 302 312 319 329 353 14 15 4 293 229 196 191 183 176 171 165 156 145 137 138 140 127 118 112 105 98 93 90 86 84 80 77 75 73 70 67 65 63 63 62 62 62 65 69 69 64 64 68 73 80 88 95 99 103 106 108 112 113 107 103 106 108 106
230 228 219 209 200 198 196 189 184 184 187 187 188 190 192 198 203 206 212 230 248 269 284 291 300 313 336 3 8 354 262 215 202 196 186 179 175 167 161 151 143 145 147 135 124 118 112 104 97 94 90 87 83 79 77 75 72 69 68 67 66 66 65 65 66 68 71 68 65 69 74 79 84 90 93 97 100 104 110 112 111 109 107 108 108
211 219 221 215 205 201 198 191 186 186 191 190 189 192 194 199 202 207 214 227 242 259 268 276 286 300 319 341 351 336 240 209 206 201 189 182 178 172 166 158 150 151 152 142 131 126 120 112 103 97 93 90 85 82 80 78 76 72 70 69 69 68 68 68 67 67 70 71 68 67 73 78 83 86 89 92 95 98 105 109 111 110 107 113 116
198 208 221 219 209 202 197 192 187 189 193 193 193 195 196 197 199 205 212 224 235 250 260 268 276 287 302 312 323 314 242 211 210 204 192 183 182 178 173 164 158 158 157 150 139 135 130 122 110 102 97 93 88 85 83 82 79 74 71 70 70 71 71 69 69 68 69 71 69 67 70 76 81 86 89 92 93 95 99 106 112 112 110 113 113
207 210 219 219 211 202 196 194 189 191 196 195 196 198 199 196 197 203 211 223 233 245 254 260 266 269 276 285 291 284 252 219 216 211 195 185 187 185 176 167 164 163 163 160 149 146 142 130 117 109 102 96 91 87 85 85 82 77 73 71 71 73 74 73 72 71 69 70 69 67 67 71 78 84 88 91 93 94 97 102 109 112 113 112 110
219 216 217 217 212 205 200 197 191 193 198 197 199 200 199 196 197 202 211 224 234 241 247 253 254 251 253 258 261 262 249 222 220 216 200 189 191 190 179 172 170 169 170 170 162 157 153 139 126 118 108 100 94 89 86 85 83 80 76 74 73 75 76 76 76 75 72 70 69 67 66 68 72 78 83 88 91 93 96 99 102 106 110 110 110
216 217 220 218 213 210 205 200 194 194 198 199 200 200 197 196 198 205 216 226 233 240 244 246 243 238 238 240 243 248 240 224 222 218 204 191 193 191 183 180 176 175 177 179 174 168 162 150 135 127 114 105 99 94 92 87 85 84 81 78 76 76 76 76 77 78 76 73 71 69 66 66 69 72 75 79 84 88 91 93 95 97 99 100 99
214 219 220 216 210 205 203 199 195 194 198 200 199 197 195 195 199 207 219 229 236 242 245 245 239 231 228 230 233 237 234 226 222 218 207 192 194 192 185 187 185 184 186 187 185 177 170 161 145 136 123 113 106 102 99 90 87 88 85 82 80 78 76 77 77 78 79 77 75 73 70 67 68 69 71 73 75 78 82 85 87 88 89 89 89
216 218 215 211 204 198 199 198 194 195 197 198 196 194 194 195 200 211 222 232 240 245 248 246 238 231 226 227 227 229 228 226 222 219 210 194 196 192 185 193 195 195 196 195 193 185 179 171 157 146 134 123 116 111 107 94 88 90 88 86 85 83 81 78 77 77 78 79 77 76 73 69 68 68 69 71 72 73 75 77 79 80 80 80 81
218 217 211 205 198 193 196 197 194 193 195 194 193 192 193 195 200 211 223 236 246 250 251 248 241 234 230 226 223 223 224 224 224 219 211 200 198 194 190 197 201 202 203 201 198 192 188 183 172 161 147 136 128 121 115 103 93 92 91 90 89 87 86 84 80 78 77 78 77 77 76 73 71 70 69 70 71 71 73 74 75 76 77 77 77
218 214 206 199 192 191 194 196 193 191 192 190 187 188 189 193 201 209 220 236 246 252 252 251 245 238 234 229 223 220 221 221 223 219 216 208 201 197 197 203 206 207 208 206 204 198 195 193 187 178 163 151 142 133 127 116 106 100 94 93 92 90 90 89 87 84 81 80 79 79 78 77 75 73 71 70 70 71 71 73 74 75 76 76 77
214 208 200 194 189 189 190 193 192 190 188 182 180 182 182 189 199 204 212 231 241 248 251 252 248 242 239 233 227 221 220 220 221 220 218 213 205 201 203 209 212 212 212 211 210 206 203 201 198 192 179 166 155 146 140 133 125 112 102 100 98 94 93 94 92 90 87 85 84 82 81 79 78 76 75 73 72 71 71 72 73 74 75 75 76
208 202 195 192 187 185 185 189 189 185 179 173 172 171 175 185 193 197 204 221 231 239 246 250 249 246 243 238 232 226 222 222 222 221 219 215 209 205 206 212 216 216 216 216 215 214 211 210 208 204 195 182 169 159 153 150 147 135 121 113 108 101 99 98 95 94 92 89 86 84 81 80 80 79 78 76 75 73 72 71 71 72 72 73 74
198 196 190 188 184 181 181 185 184 177 169 164 164 166 177 185 191 197 207 218 225 233 239 246 248 247 244 239 234 228 225 224 224 224 223 218 214 211 209 213 217 218 219 219 218 219 219 218 217 215 209 199 187 175 167 164 164 164 151 135 124 113 108 105 100 97 95 91 88 85 82 79 78 78 78 77 77 75 73 71 69 69 70 71 71
179 187 185 182 180 178 179 180 175 167 161 161 165 175 184 188 198 205 213 220 225 229 234 240 244 244 242 238 232 228 225 225 227 226 225 221 217 216 214 214 217 219 221 223 222 221 222 223 223 222 219 213 204 191 180 176 178 183 174 158 145 131 123 116 109 103 98 94 91 89 85 80 78 77 75 75 75 75 74 72 69 67 67 68 68
168 179 180 177 177 176 176 172 166 162 161 167 174 185 193 198 207 209 213 218 222 224 229 234 238 240 238 234 229 226 224 224 227 227 225 221 217 217 217 217 218 221 222 225 227 227 227 227 228 226 225 222 217 208 195 186 187 195 189 173 167 155 144 137 125 114 104 95 89 87 86 82 79 76 74 72 71 71 71 72 71 68 66 65 64
168 172 174 175 174 170 168 163 159 161 165 172 176 189 200 203 205 205 209 213 217 219 224 229 232 235 233 230 227 224 223 222 224 225 224 220 217 216 217 218 219 221 222 225 228 232 234 235 236 234 232 229 227 223 214 201 195 202 204 186 180 181 171 165 153 135 119 105 92 84 81 80 77 73 70 68 67 66 66 66 68 68 66 64 62
171 170 172 173 167 158 153 153 157 162 167 173 178 196 202 202 204 202 207 210 214 218 222 226 228 230 229 228 225 222 219 218 218 218 218 216 215 216 214 214 219 221 222 223 226 232 238 243 245 245 242 238 235 233 229 220 209 208 213 205 195 197 198 196 190 178 159 131 109 91 79 75 72 68 64 63 62 62 61 61 61 62 63 62 61
175 171 170 165 156 150 150 157 160 161 166 173 190 209 208 206 206 205 209 211 215 219 223 226 228 229 226 224 223 220 216 215 212 210 211 210 211 212 209 207 215 222 224 225 226 230 236 244 250 253 252 247 243 240 237 233 225 219 219 218 212 209 211 214 218 218 218 210 172 114 81 68 66 63 57 54 54 54 55 55 54 56 57 57 56
176 170 167 160 153 154 158 163 158 154 167 194 220 226 219 214 212 212 213 214 217 221 224 227 228 226 223 219 219 219 217 216 212 208 205 204 207 203 197 192 197 212 222 226 227 228 233 241 252 259 261 255 249 245 243 239 235 232 229 227 224 220 220 223 229 234 240 247 256 265 295 21 46 49 44 38 38 40 42 45 46 47 49 51 50
176 169 166 162 161 162 163 164 156 162 194 220 220 216 213 212 212 216 217 216 218 222 226 228 229 225 219 216 219 222 219 217 212 204 202 200 199 192 185 180 178 187 205 218 222 224 228 236 250 262 265 260 253 249 247 244 240 238 237 236 233 230 227 229 234 238 244 254 265 276 285 297 316 343 359 4 7 13 21 27 31 35 38 40 42
179 174 169 163 162 163 169 175 176 190 208 206 200 198 203 204 207 213 215 217 219 223 226 228 228 224 219 218 221 223 220 216 208 202 202 200 196 187 180 176 176 176 181 195 207 215 221 233 253 268 270 263 257 253 251 248 245 243 242 241 240 239 235 234 237 242 247 255 264 273 282 290 296 300 311 323 332 340 348 358 6 16 21 25 29
182 177 169 163 165 173 185 188 188 198 196 190 189 196 199 196 200 207 210 212 213 216 219 221 223 220 218 218 221 225 224 216 209 205 203 201 196 189 184 181 181 178 173 180 197 218 233 245 261 274 275 268 261 255 253 252 249 247 246 245 245 244 244 242 242 246 251 255 260 267 275 283 289 291 294 302 312 320 323 329 336 345 355 3 9
186 179 174 173 175 182 192 191 187 193 193 189 194 200 196 193 201 206 206 202 204 207 211 215 217 217 216 216 221 225 221 214 211 208 203 201 198 194 194 196 196 193 187 190 208 234 252 262 270 276 275 271 265 259 256 255 252 250 249 249 249 249 250 251 250 251 254 257 259 263 269 276 282 285 288 292 299 305 309 313 317 321 328 337 343
189 187 184 184 185 188 190 185 189 206 213 213 207 205 199 202 210 208 204 202 201 202 206 211 212 215 215 215 218 216 210 208 207 205 202 202 203 206 211 217 219 220 220 218 227 243 257 271 278 276 272 269 266 262 260 258 255 252 249 249 250 251 253 255 256 255 257 260 261 263 267 272 277 281 284 287 291 296 301 304 307 310 314 319 323
192 193 191 191 194 194 185 172 202 240 253 250 227 218 218 219 215 206 205 202 198 198 200 205 208 210 211 211 209 206 202 200 199 201 207 213 219 229 236 239 240 239 240 241 245 249 261 275 276 268 264 261 260 261 261 261 259 254 249 247 247 249 251 254 256 257 259 261 264 265 267 270 273 278 281 284 286 291 295 298 300 303 306 308 309
197 195 196 199 201 194 181 175 219 254 260 248 237 237 238 229 218 207 203 198 194 195 197 198 202 204 205 205 201 200 200 200 203 209 219 227 234 241 248 253 252 251 249 248 250 253 262 273 270 266 260 255 254 256 258 260 261 257 249 247 245 245 248 250 253 255 257 261 265 266 267 268 270 274 277 280 282 285 288 290 293 296 298 300 301
201 198 199 203 202 192 180 185 215 238 238 237 242 245 241 231 220 210 203 197 195 193 193 194 196 201 203 202 200 201 204 208 217 225 233 241 247 250 254 255 254 253 250 246 247 250 259 268 270 269 263 256 252 251 252 253 256 257 251 245 242 241 243 246 250 253 255 259 262 264 265 267 268 270 272 276 279 281 283 285 287 289 290 291 292
204 203 206 205 198 189 175 179 204 225 234 238 243 243 236 226 212 207 205 199 196 192 189 190 193 199 202 202 202 203 208 218 230 240 246 251 254 254 254 253 252 250 246 243 245 252 264 270 272 271 267 263 258 253 248 248 252 255 251 241 237 237 238 241 246 249 252 254 257 260 262 265 266 268 271 274 276 278 280 283 284 285 286 286 286
205 207 207 205 197 187 169 172 199 221 233 237 239 234 225 217 208 206 207 203 197 190 186 186 191 197 200 201 203 207 218 231 241 247 249 251 250 249 249 249 250 248 245 244 249 260 270 273 274 272 270 266 262 256 249 245 247 250 249 240 234 235 236 239 243 246 249 251 253 256 259 261 264 267 271 274 277 279 281 283 284 285 285 285 285
205 209 205 202 196 183 171 183 203 218 228 233 232 228 220 214 211 209 208 205 195 186 182 182 189 194 197 201 207 217 230 239 243 244 243 243 242 240 241 245 247 248 249 252 259 267 272 273 273 271 269 265 260 255 249 244 244 245 243 237 234 236 238 238 239 242 245 248 251 253 255 258 261 265 270 275 279 281 282 283 283 283 283 283 283
203 204 202 198 191 182 182 193 206 215 223 231 231 225 223 217 214 210 206 202 191 183 180 181 188 192 196 204 215 229 236 239 239 238 237 236 234 234 238 242 245 250 256 262 268 270 270 271 269 267 264 259 256 252 248 246 244 242 238 234 232 232 234 236 239 244 248 251 251 250 252 257 261 265 270 275 279 282 284 284 283 281 278 278 278
202 198 196 187 184 187 192 198 206 214 220 228 231 229 226 219 214 209 202 196 187 180 180 183 188 193 201 212 225 234 235 236 237 235 235 233 232 235 239 243 248 255 263 268 269 267 266 266 266 264 258 254 252 246 244 246 243 240 236 232 230 231 235 240 244 246 247 249 251 251 253 258 262 267 272 275 278 281 283 283 282 279 276 275 275
199 192 187 179 184 193 195 200 205 210 218 224 228 227 221 214 212 207 195 189 183 179 182 187 192 200 212 222 231 234 235 237 237 236 235 234 237 241 246 251 255 260 265 267 264 262 262 263 264 261 252 247 245 240 239 242 242 244 243 239 235 235 237 238 238 237 238 243 251 256 259 261 261 267 273 274 275 276 277 278 278 278 277 276 276
194 188 181 180 188 198 198 201 206 206 211 219 220 218 210 205 204 196 188 183 180 179 185 192 200 210 218 225 230 235 238 239 238 238 239 240 242 246 253 256 257 261 264 262 260 260 263 264 263 257 247 240 240 235 233 237 239 245 252 249 242 237 236 236 238 240 242 249 255 259 261 262 261 263 269 272 275 274 274 275 277 279 281 282 284
191 184 179 184 190 199 202 202 206 205 205 208 208 207 203 198 193 188 183 179 178 181 187 196 203 211 217 224 233 238 241 241 240 240 242 245 245 247 252 254 255 260 263 262 261 263 264 262 257 251 242 237 235 228 227 232 234 241 252 253 246 240 241 243 246 249 250 253 257 254 255 259 260 261 267 274 276 273 271 273 276 279 285 289 290
201 190 182 193 197 196 200 204 205 203 202 201 203 205 200 192 188 186 182 177 179 183 188 195 203 212 222 231 238 242 243 243 243 244 246 248 248 248 250 252 255 257 258 259 260 262 261 257 252 244 236 231 228 223 221 225 231 240 250 255 252 248 251 252 251 251 246 247 253 251 248 252 255 257 265 271 271 270 271 273 275 278 283 288 288
229 218 205 208 207 194 197 208 207 202 201 199 201 204 198 191 188 185 181 179 181 185 189 197 208 220 230 238 243 246 248 249 248 248 251 252 252 254 256 257 256 253 253 253 253 256 255 251 247 237 227 224 227 225 221 220 224 234 245 255 257 256 261 267 266 254 238 234 238 235 236 240 242 248 254 261 265 271 275 277 281 284 288 288 288
317 274 244 221 207 196 202 212 210 205 203 200 201 202 198 192 188 185 181 181 185 189 195 206 218 228 235 241 247 251 253 253 247 239 244 246 248 253 254 255 256 256 257 252 246 248 250 249 242 226 217 222 228 228 223 217 218 226 238 253 262 268 279 292 276 255 245 243 222 209 221 229 232 244 250 262 269 269 267 270 277 282 287 288 290
349 351 314 254 230 219 213 216 213 209 207 205 203 201 197 193 189 188 185 186 191 195 202 211 216 221 228 232 240 249 252 251 246 239 240 242 243 246 247 251 257 261 265 260 247 248 255 257 246 225 215 224 228 224 221 219 223 232 241 249 263 277 289 292 271 244 233 258 236 213 223 233 237 248 256 261 261 263 264 266 267 268 271 276 279
17 27 9 301 267 231 216 221 219 212 211 208 205 200 196 193 192 192 191 190 194 198 200 197 193 195 203 211 218 233 238 241 245 245 243 241 240 241 244 249 253 258 265 263 250 250 258 258 248 232 222 229 232 229 227 229 236 242 245 247 259 276 288 288 272 231 201 257 244 219 228 251 249 247 250 252 255 265 273 275 271 270 274 276 269
34 42 46 256 255 227 217 223 222 214 212 207 203 199 195 191 190 192 191 191 191 188 182 173 172 180 186 192 203 221 244 284 338 290 253 240 239 241 246 251 252 258 266 263 254 255 260 257 248 237 230 232 235 238 239 238 240 242 248 252 257 275 292 292 279 262 268 261 237 213 223 255 253 248 247 252 259 265 273 276 273 270 269 267 267
84 54 67 229 234 223 216 217 216 212 210 207 200 196 194 190 189 190 187 186 183 175 168 164 167 173 176 180 191 221 282 347 15 29 41 37 251 251 258 263 264 267 270 265 261 260 261 260 252 242 237 234 234 240 242 238 237 239 252 258 261 278 303 308 305 319 292 263 247 257 274 253 257 259 249 245 248 251 262 266 265 262 249 248 260
166 77 67 195 220 217 212 211 214 212 208 206 198 194 194 193 193 189 184 182 175 168 164 163 166 172 180 186 187 200 292 15 31 38 44 51 48 6 302 285 278 277 276 270 266 262 260 261 257 250 244 238 235 239 245 243 240 242 251 259 268 282 299 311 324 333 283 272 294 330 306 274 274 277 255 235 237 243 251 250 244 231 221 230 240
186 176 162 166 198 206 208 211 216 214 209 205 198 195 195 195 195 192 187 182 173 165 162 160 165 174 178 185 187 189 181 47 44 37 27 29 27 15 357 334 315 300 284 269 260 257 257 257 258 257 249 242 238 240 248 250 245 243 244 253 267 277 280 284 299 308 256 277 303 322 308 294 282 265 254 239 237 236 236 234 192 177 199 222 234
201 201 214 210 196 200 206 209 212 212 208 203 198 197 198 197 196 194 190 181 170 164 162 163 166 163 158 180 203 210 232 298 327 342 343 341 341 337 332 329 328 322 300 266 246 242 245 249 252 253 248 243 240 238 242 246 247 245 243 246 249 255 266 271 275 269 252 273 299 318 305 286 258 246 253 247 240 232 219 203 177 184 217 266 281
227 216 223 220 207 202 203 204 206 207 205 203 200 198 200 198 193 190 183 173 170 170 170 170 164 152 156 184 205 222 262 293 298 303 306 310 319 324 319 313 310 310 306 288 258 240 238 241 244 247 247 243 238 236 236 239 243 243 243 246 243 243 251 248 253 260 264 283 299 309 303 285 259 248 237 238 247 239 220 202 206 265 294 298 299
232 229 232 226 213 204 203 203 203 203 202 202 201 200 201 199 194 186 176 172 175 175 172 166 157 153 165 188 211 257 301 307 304 301 299 303 314 320 319 311 300 294 292 293 282 258 244 241 240 242 245 244 239 235 235 235 237 239 240 242 241 239 239 240 245 244 254 291 301 302 307 289 224 241 232 253 286 277 312 312 310 310 306 306 308
225 234 231 227 215 204 202 204 203 202 201 201 201 200 198 196 191 182 177 178 180 176 170 164 161 165 183 203 239 309 320 318 314 308 300 297 299 304 308 305 296 287 282 284 285 274 257 245 240 236 239 244 243 237 233 233 234 239 242 243 243 242 237 236 240 234 233 264 274 276 274 210 205 231 220 222 238 241 289 302 307 312 314 316 316
218 220 219 222 214 203 201 203 204 202 201 202 200 199 197 194 188 182 181 183 183 180 173 167 169 183 215 248 296 320 320 317 311 304 296 292 292 294 295 294 293 288 283 281 279 274 264 250 242 236 234 238 241 237 231 229 231 236 245 249 247 243 237 232 225 214 217 237 246 247 240 222 219 223 214 208 210 228 260 287 305 315 318 317 314
215 209 209 213 209 204 202 202 204 202 200 200 198 197 198 194 188 184 183 185 185 183 173 163 175 203 239 274 302 314 314 313 307 299 292 288 286 285 284 285 289 289 284 279 273 269 263 250 240 235 232 231 233 233 229 227 227 228 236 243 241 238 239 239 236 229 226 232 237 241 242 235 221 219 222 223 227 237 256 285 302 306 305 305 303
Height
3146 3146 3146 3146 3146 3146 3147 3147 3147 3148 3150 3151 3152 3153 3155 3155 3156 3156 3157 3158 3159 3160 3161 3162 3162 3163 3163 3164 3164 3163 3163 3163 3164 3164 3165 3165 3166 3167 3167 3167 3168 3168 3169 3169 3170 3171 3171 3171 3171 3171 3172 3172 3172 3172 3172 3172 3171 3171 3171 3170 3169 3168 3167 3166 3164 3163 3161 3161 3160 3159 3159 3158 3159 3159 3159 3160 3161 3161 3162 3163 3163 3164 3164 3165 3165
3145 3146 3146 3146 3146 3146 3146 3147 3147 3148 3150 3151 3152 3153 3154 3155 3156 3156 3157 3158 3159 3160 3161 3162 3162 3163 3164 3164 3164 3164 3164 3164 3164 3164 3165 3166 3166 3167 3167 3168 3168 3169 3169 3170 3171 3172 3172 3172 3172 3173 3173 3173 3173 3173 3173 3173 3173 3172 3172 3172 3171 3170 3169 3168 3167 3165 3163 3163 3162 3162 3161 3160 3160 3161 3161 3161 3162 3163 3163 3164 3165 3166 3166 3166 3166
3144 3145 3146 3146 3145 3146 3146 3146 3147 3148 3149 3150 3152 3153 3154 3155 3155 3156 3157 3158 3159 3160 3160 3161 3162 3163 3164 3164 3164 3165 3164 3164 3164 3165 3165 3166 3166 3167 3167 3168 3169 3169 3170 3171 3172 3173 3173 3173 3173 3174 3174 3174 3174 3174 3174 3174 3174 3174 3174 3173 3173 3172 3171 3170 3169 3167 3166 3165 3164 3164 3163 3163 3162 3162 3163 3163 3164 3164 3165 3166 3166 3167 3167 3167 3167
3144 3145 3145 3145 3145 3145 3146 3146 3146 3147 3149 3150 3151 3152 3153 3154 3155 3156 3157 3158 3159 3159 3160 3161 3162 3163 3164 3164 3164 3165 3165 3165 3165 3165 3166 3166 3167 3167 3168 3168 3169 3170 3171 3172 3172 3173 3174 3174 3174 3175 3175 3175 3175 3175 3175 3175 3175 3175 3175 3175 3175 3174 3173 3172 3171 3170 3168 3167 3166 3166 3166 3165 3164 3164 3164 3165 3165 3166 3166 3167 3167 3168 3168 3169 3169
3143 3144 3145 3145 3145 3145 3145 3145 3146 3147 3148 3150 3151 3152 3153 3154 3155 3156 3157 3158 3158 3159 3160 3161 3162 3163 3163 3164 3164 3165 3165 3165 3165 3165 3166 3166 3167 3167 3168 3168 3169 3170 3171 3172 3173 3174 3175 3175 3175 3176 3176 3176 3176 3176 3177 3177 3176 3176 3176 3176 3176 3176 3175 3174 3173 3172 3171 3169 3168 3169 3168 3168 3167 3166 3166 3166 3166 3167 3167 3168 3169 3169 3169 3170 3170
3143 3144 3145 3145 3145 3145 3145 3145 3146 3147 3148 3149 3150 3152 3153 3154 3155 3156 3157 3157 3158 3159 3160 3161 3162 3163 3163 3164 3164 3165 3165 3166 3165 3165 3166 3167 3167 3167 3168 3169 3170 3171 3172 3172 3174 3174 3175 3176 3176 3177 3177 3177 3178 3178 3178 3178 3178 3178 3178 3178 3178 3177 3177 3176 3175 3174 3173 3172 3171 3171 3171 3170 3170 3169 3169 3168 3168 3169 3169 3169 3170 3170 3170 3171 3171
3143 3143 3144 3144 3144 3144 3144 3144 3145 3146 3148 3149 3150 3151 3153 3154 3155 3155 3156 3157 3158 3159 3160 3161 3162 3163 3163 3164 3164 3165 3165 3165 3166 3166 3166 3167 3167 3168 3168 3169 3170 3171 3172 3173 3174 3175 3176 3176 3177 3177 3178 3178 3179 3179 3179 3179 3179 3179 3179 3179 3179 3179 3178 3178 3177 3176 3175 3174 3173 3173 3174 3173 3173 3172 3171 3171 3170 3171 3171 3171 3171 3171 3171 3172 3172
3142 3143 3143 3143 3143 3143 3143 3144 3145 3146 3147 3149 3150 3151 3152 3153 3154 3155 3155 3156 3158 3159 3160 3161 3162 3162 3163 3164 3164 3165 3165 3165 3166 3166 3166 3167 3167 3168 3169 3169 3170 3171 3172 3173 3174 3175 3176 3177 3177 3178 3178 3179 3180 3180 3180 3180 3180 3181 3181 3181 3181 3180 3180 3180 3179 3178 3177 3177 3176 3175 3176 3176 3175 3175 3174 3173 3173 3173 3173 3173 3173 3173 3173 3173 3173
3141 3141 3142 3142 3142 3142 3143 3143 3144 3146 3147 3149 3150 3151 3152 3153 3153 3154 3155 3156 3157 3159 3160 3161 3161 3162 3163 3164 3164 3165 3165 3165 3166 3166 3166 3167 3167 3168 3169 3169 3170 3171 3172 3173 3174 3176 3177 3177 3178 3178 3179 3180 3181 3181 3181 3181 3182 3182 3182 3182 3182 3182 3182 3181 3181 3180 3180 3179 3178 3177 3177 3178 3178 3177 3177 3176 3176 3175 3175 3175 3175 3175 3175 3175 3175
3140 3140 3140 3141 3141 3141 3142 3143 3145 3146 3148 3149 3150 3151 3152 3153 3153 3154 3155 3156 3157 3158 3159 3160 3161 3162 3162 3164 3164 3164 3165 3165 3166 3166 3166 3167 3167 3168 3169 3169 3170 3171 3172 3173 3174 3176 3177 3178 3178 3179 3180 3181 3181 3182 3182 3182 3183 3183 3183 3183 3183 3183 3183 3183 3183 3182 3182 3181 3180 3179 3179 3180 3180 3180 3179 3179 3178 3178 3178 3178 3177 3177 3177 3177 3177
3139 3139 3139 3139 3140 3141 3142 3143 3145 3146 3148 3149 3150 3151 3152 3153 3153 3154 3155 3156 3157 3158 3158 3159 3160 3161 3162 3163 3164 3164 3165 3165 3165 3166 3166 3167 3168 3168 3169 3168 3169 3171 3172 3173 3174 3176 3177 3178 3178 3179 3180 3181 3182 3183 3183 3183 3183 3183 3184 3184 3184 3184 3184 3184 3184 3184 3183 3183 3182 3182 3181 3181 3182 3182 3181 3181 3181 3181 3180 3180 3180 3180 3179 3179 3179
3138 3138 3138 3138 3139 3140 3142 3143 3145 3146 3148 3149 3150 3151 3152 3152 3153 3154 3155 3156 3157 3157 3158 3159 3160 3160 3161 3162 3163 3164 3164 3164 3165 3165 3166 3166 3167 3168 3169 3168 3169 3170 3171 3173 3174 3175 3176 3177 3178 3179 3180 3181 3182 3183 3183 3184 3184 3184 3184 3185 3185 3185 3185 3185 3185 3185 3185 3185 3184 3184 3183 3183 3183 3183 3183 3183 3183 3183 3183 3183 3182 3182 3182 3182 3181
3136 3136 3137 3137 3139 3140 3142 3143 3145 3146 3148 3149 3150 3151 3151 3152 3153 3154 3155 3156 3156 3157 3158 3158 3159 3160 3161 3162 3162 3163 3163 3163 3164 3164 3165 3166 3167 3168 3168 3168 3168 3170 3171 3172 3173 3175 3176 3177 3178 3179 3181 3182 3183 3184 3184 3184 3184 3184 3185 3185 3186 3186 3186 3187 3187 3187 3186 3186 3186 3185 3185 3185 3185 3185 3184 3184 3184 3184 3185 3185 3185 3185 3184 3184 3184
3135 3136 3136 3138 3139 3140 3142 3144 3145 3147 3148 3149 3149 3150 3151 3152 3153 3154 3154 3155 3156 3157 3157 3158 3159 3160 3160 3161 3162 3162 3162 3163 3163 3164 3164 3165 3166 3167 3167 3167 3168 3169 3170 3171 3173 3174 3176 3177 3178 3179 3181 3182 3183 3184 3185 3185 3185 3185 3185 3186 3186 3187 3187 3187 3188 3188 3187 3187 3187 3187 3187 3186 3187 3186 3186 3186 3186 3186 3186 3186 3186 3186 3186 3186 3186
3134 3135 3136 3138 3139 3140 3142 3144 3145 3147 3147 3148 3149 3150 3151 3152 3152 3153 3154 3155 3155 3156 3157 3158 3158 3159 3160 3160 3161 3161 3162 3162 3163 3163 3164 3165 3165 3166 3167 3167 3168 3169 3170 3171 3172 3173 3175 3176 3177 3179 3180 3182 3183 3184 3185 3185 3185 3185 3186 3187 3187 3187 3188 3188 3188 3188 3188 3189 3188 3188 3188 3188 3188 3188 3188 3188 3188 3188 3188 3188 3188 3188 3188 3188 3187
3133 3135 3136 3138 3139 3140 3142 3144 3145 3146 3147 3148 3148 3149 3150 3151 3152 3152 3153 3154 3155 3156 3156 3157 3158 3158 3159 3159 3160 3160 3161 3162 3162 3162 3163 3164 3165 3165 3166 3167 3167 3168 3170 3171 3172 3173 3174 3175 3177 3178 3180 3181 3182 3183 3184 3185 3186 3186 3186 3187 3188 3188 3188 3189 3189 3189 3189 3189 3189 3189 3189 3189 3189 3189 3189 3189 3189 3189 3189 3189 3189 3189 3189 3189 3189
3133 3135 3136 3138 3139 3141 3143 3144 3145 3145 3146 3147 3148 3148 3149 3150 3150 3151 3152 3153 3154 3155 3156 3156 3157 3157 3158 3158 3159 3159 3160 3161 3161 3162 3162 3163 3164 3165 3166 3166 3167 3168 3169 3170 3172 3173 3174 3175 3176 3178 3179 3181 3182 3183 3184 3185 3186 3186 3187 3188 3188 3188 3188 3189 3189 3190 3190 3190 3190 3190 3190 3190 3190 3190 3190 3190 3190 3190 3190 3190 3190 3190 3190 3190 3190
3133 3134 3136 3138 3139 3141 3142 3143 3144 3144 3145 3146 3146 3147 3148 3148 3149 3151 3152 3153 3153 3154 3155 3156 3156 3156 3157 3157 3158 3158 3159 3160 3161 3161 3162 3163 3164 3164 3165 3166 3167 3167 3168 3169 3171 3172 3173 3175 3176 3178 3179 3180 3182 3183 3184 3185 3186 3186 3187 3188 3188 3189 3189 3189 3190 3190 3191 3191 3191 3191 3191 3191 3191 3191 3191 3192 3192 3192 3191 3191 3191 3191 3191 3191 3191
3133 3134 3136 3138 3140 3141 3142 3142 3143 3144 3144 3145 3145 3146 3147 3148 3149 3150 3151 3152 3153 3154 3154 3155 3155 3156 3156 3157 3157 3158 3159 3160 3161 3162 3162 3163 3163 3164 3165 3166 3167 3167 3168 3169 3170 3172 3173 3174 3176 3177 3178 3180 3182 3183 3184 3185 3186 3186 3187 3188 3189 3189 3189 3189 3190 3191 3191 3191 3191 3191 3192 3192 3192 3192 3192 3192 3193 3193 3193 3192 3192 3192 3192 3192 3192
3133 3135 3137 3138 3139 3140 3141 3141 3142 3143 3143 3144 3145 3145 3146 3148 3149 3150 3150 3151 3152 3153 3154 3154 3155 3155 3156 3156 3157 3158 3159 3160 3161 3162 3162 3163 3163 3164 3165 3166 3167 3167 3168 3169 3170 3171 3172 3173 3175 3176 3178 3179 3181 3182 3182 3184 3185 3186 3187 3188 3188 3189 3189 3189 3190 3191 3191 3191 3192 3192 3192 3192 3192 3192 3193 3193 3193 3193 3193 3193 3193 3193 3193 3193 3193
3133 3135 3136 3138 3139 3139 3140 3140 3141 3142 3143 3143 3144 3145 3146 3147 3148 3149 3150 3151 3152 3152 3153 3154 3154 3155 3155 3156 3156 3157 3158 3159 3161 3162 3162 3163 3164 3164 3165 3166 3167 3167 3168 3169 3170 3171 3172 3173 3174 3175 3176 3178 3180 3181 3181 3183 3184 3185 3186 3187 3188 3188 3189 3189 3190 3190 3191 3191 3192 3192 3192 3192 3192 3193 3193 3193 3194 3194 3194 3194 3194 3194 3193 3193 3193
3133 3134 3136 3137 3138 3138 3139 3140 3141 3142 3142 3143 3143 3144 3145 3146 3147 3148 3149 3150 3151 3152 3152 3153 3153 3154 3154 3155 3156 3157 3158 3159 3160 3161 3162 3163 3163 3164 3165 3165 3166 3167 3168 3169 3169 3170 3171 3172 3173 3174 3175 3176 3178 3179 3180 3181 3183 3184 3185 3186 3187 3187 3188 3188 3189 3190 3191 3191 3192 3192 3192 3192 3192 3193 3193 3193 3193 3194 3194 3194 3194 3194 3194 3194 3194
3133 3134 3135 3136 3137 3138 3138 3139 3140 3141 3142 3142 3143 3144 3144 3145 3146 3147 3148 3149 3150 3151 3152 3152 3153 3153 3154 3155 3156 3158 3158 3159 3160 3161 3162 3162 3163 3163 3164 3165 3166 3167 3168 3169 3170 3170 3170 3171 3172 3173 3174 3175 3177 3177 3178 3180 3182 3183 3184 3185 3185 3186 3187 3188 3188 3189 3190 3191 3191 3191 3191 3192 3192 3192 3192 3193 3193 3193 3194 3194 3194 3194 3194 3194 3194
3133 3134 3134 3135 3136 3137 3138 3139 3140 3141 3141 3142 3142 3143 3143 3144 3145 3146 3147 3148 3149 3150 3151 3151 3152 3153 3154 3155 3156 3157 3158 3159 3160 3161 3161 3162 3162 3163 3164 3165 3167 3168 3169 3170 3170 3170 3170 3170 3171 3173 3174 3174 3175 3175 3176 3178 3180 3181 3182 3183 3184 3185 3186 3187 3188 3189 3189 3190 3190 3190 3191 3191 3191 3191 3192 3192 3192 3193 3193 3193 3194 3194 3194 3194 3194
3132 3133 3134 3134 3135 3136 3137 3139 3140 3140 3141 3141 3141 3142 3143 3143 3144 3145 3146 3147 3148 3149 3150 3151 3152 3152 3154 3155 3156 3157 3158 3159 3160 3160 3161 3162 3162 3163 3164 3165 3166 3168 3169 3170 3170 3171 3170 3170 3171 3172 3173 3174 3174 3174 3175 3176 3178 3179 3181 3181 3182 3184 3185 3185 3186 3187 3188 3188 3189 3189 3190 3190 3191 3191 3191 3191 3192 3192 3192 3193 3193 3193 3194 3194 3194
3131 3132 3133 3133 3134 3135 3137 3138 3139 3140 3140 3140 3140 3141 3142 3142 3143 3144 3145 3146 3147 3148 3149 3150 3151 3152 3154 3155 3156 3157 3157 3158 3159 3160 3161 3161 3162 3163 3164 3165 3166 3167 3168 3169 3170 3170 3170 3170 3170 3171 3172 3173 3173 3173 3174 3175 3175 3177 3178 3179 3181 3182 3183 3184 3184 3185 3186 3186 3187 3188 3189 3189 3189 3190 3190 3190 3191 3191 3192 3192 3192 3193 3193 3193 3193
3130 3131 3131 3132 3133 3135 3136 3137 3138 3139 3139 3139 3139 3140 3141 3141 3142 3143 3144 3145 3146 3147 3148 3150 3151 3152 3153 3155 3156 3156 3157 3158 3159 3160 3160 3161 3161 3162 3163 3164 3165 3166 3167 3168 3169 3169 3169 3170 3170 3171 3172 3172 3173 3173 3173 3174 3174 3175 3176 3177 3179 3180 3181 3182 3182 3183 3184 3185 3185 3186 3187 3187 3188 3188 3188 3189 3189 3190 3190 3191 3191 3192 3192 3192 3192
3130 3130 3131 3132 3133 3134 3135 3136 3137 3138 3138 3138 3138 3139 3139 3140 3141 3142 3143 3144 3145 3146 3148 3149 3151 3152 3153 3154 3155 3156 3157 3158 3159 3159 3159 3160 3160 3161 3162 3162 3164 3165 3166 3167 3168 3168 3168 3169 3169 3170 3171 3171 3172 3172 3173 3173 3173 3173 3175 3176 3177 3178 3179 3180 3181 3182 3182 3183 3184 3184 3185 3186 3186 3186 3187 3187 3188 3188 3189 3189 3190 3190 3191 3191 3191
3129 3130 3130 3132 3133 3134 3135 3136 3136 3137 3137 3137 3137 3137 3138 3139 3140 3141 3142 3143 3144 3146 3147 3149 3150 3151 3152 3154 3155 3156 3157 3157 3158 3158 3158 3159 3159 3160 3160 3161 3162 3163 3165 3166 3166 3167 3167 3168 3168 3169 3170 3171 3171 3171 3172 3172 3172 3173 3174 3175 3176 3176 3177 3178 3179 3180 3181 3181 3182 3182 3183 3183 3184 3184 3185 3186 3186 3187 3187 3187 3188 3189 3189 3189 3190
3128 3129 3130 3131 3132 3133 3134 3135 3135 3136 3136 3136 3135 3136 3137 3138 3139 3140 3141 3143 3144 3145 3147 3148 3150 3151 3152 3153 3154 3155 3156 3156 3157 3157 3157 3158 3158 3159 3159 3160 3161 3162 3163 3164 3165 3166 3166 3167 3168 3168 3169 3170 3170 3170 3171 3171 3171 3172 3172 3174 3174 3175 3176 3177 3178 3178 3179 3179 3180 3181 3181 3182 3182 3182 3183 3184 3185 3185 3186 3186 3187 3187 3187 3188 3188
3126 3128 3130 3131 3132 3132 3133 3134 3134 3135 3135 3134 3134 3135 3136 3137 3139 3140 3141 3142 3143 3145 3146 3148 3149 3150 3151 3153 3154 3154 3155 3155 3156 3156 3156 3157 3157 3158 3158 3159 3160 3161 3162 3163 3164 3165 3165 3166 3167 3167 3168 3168 3169 3169 3170 3170 3170 3170 3171 3172 3173 3174 3175 3175 3175 3176 3177 3178 3178 3179 3180 3180 3180 3181 3182 3182 3183 3184 3184 3185 3185 3186 3186 3186 3186
3126 3127 3129 3131 3131 3132 3132 3133 3133 3133 3133 3133 3134 3135 3136 3137 3139 3140 3140 3141 3142 3144 3146 3147 3148 3149 3151 3152 3153 3153 3154 3155 3155 3155 3156 3156 3157 3157 3158 3159 3159 3160 3161 3162 3163 3164 3164 3165 3166 3166 3167 3167 3168 3168 3169 3169 3169 3169 3170 3171 3172 3172 3173 3173 3174 3175 3176 3176 3177 3178 3178 3178 3179 3180 3181 3181 3182 3182 3183 3183 3184 3184 3184 3184 3184
3125 3126 3128 3130 3131 3131 3131 3132 3132 3132 3133 3133 3134 3135 3136 3137 3138 3139 3140 3140 3142 3144 3145 3146 3147 3149 3150 3151 3152 3153 3153 3154 3154 3155 3155 3156 3156 3157 3158 3158 3159 3160 3161 3161 3162 3163 3163 3164 3165 3165 3166 3167 3167 3168 3168 3169 3169 3169 3169 3170 3170 3171 3172 3173 3174 3174 3175 3175 3176 3176 3177 3177 3178 3179 3179 3180 3181 3181 3182 3182 3183 3183 3183 3183 3183
3124 3125 3127 3129 3129 3129 3130 3130 3131 3132 3133 3134 3134 3135 3136 3137 3138 3138 3139 3140 3141 3143 3145 3146 3147 3148 3149 3150 3151 3152 3152 3153 3153 3154 3155 3155 3156 3157 3157 3158 3158 3159 3160 3160 3161 3161 3162 3163 3164 3164 3165 3166 3167 3167 3168 3168 3168 3168 3169 3169 3169 3171 3172 3172 3172 3173 3173 3174 3175 3175 3176 3176 3177 3178 3178 3179 3179 3180 3181 3181 3181 3182 3182 3182 3182
3120 3122 3125 3126 3127 3127 3128 3129 3130 3131 3133 3133 3134 3135 3136 3137 3137 3138 3139 3140 3141 3143 3144 3145 3146 3147 3148 3149 3150 3151 3151 3152 3153 3154 3155 3155 3156 3157 3157 3157 3158 3159 3159 3160 3160 3160 3161 3162 3163 3164 3165 3165 3166 3167 3167 3167 3168 3168 3168 3168 3169 3170 3170 3170 3171 3172 3173 3173 3174 3175 3175 3175 3176 3176 3177 3178 3179 3179 3179 3180 3180 3181 3181 3181 3182
3119 3121 3123 3125 3125 3126 3128 3129 3130 3131 3132 3133 3134 3134 3136 3136 3137 3138 3138 3140 3141 3142 3143 3144 3146 3147 3148 3149 3149 3150 3151 3152 3153 3154 3154 3155 3155 3156 3156 3156 3157 3158 3159 3159 3159 3159 3160 3161 3162 3163 3164 3165 3165 3166 3166 3167 3167 3167 3168 3168 3168 3168 3169 3171 3172 3172 3172 3173 3173 3173 3174 3175 3175 3176 3177 3177 3178 3178 3178 3178 3179 3180 3180 3181 3181
3124 3123 3124 3124 3125 3127 3128 3129 3130 3131 3132 3132 3133 3134 3135 3136 3136 3137 3138 3139 3141 3142 3143 3144 3145 3147 3147 3148 3149 3150 3150 3151 3152 3153 3153 3154 3155 3155 3155 3155 3156 3158 3158 3158 3159 3159 3160 3161 3162 3162 3163 3164 3164 3165 3166 3166 3167 3167 3167 3167 3167 3168 3170 3171 3171 3171 3171 3172 3172 3173 3174 3175 3175 3175 3176 3176 3177 3177 3177 3178 3178 3179 3179 3179 3179
3126 3126 3125 3125 3126 3127 3127 3128 3129 3130 3131 3132 3133 3133 3134 3135 3136 3137 3138 3139 3140 3141 3142 3144 3145 3146 3147 3148 3149 3149 3150 3150 3151 3152 3153 3153 3154 3155 3155 3154 3156 3157 3157 3158 3158 3158 3159 3160 3161 3162 3162 3163 3164 3164 3165 3166 3166 3166 3167 3167 3167 3168 3170 3171 3171 3169 3170 3171 3171 3172 3173 3173 3174 3174 3175 3175 3176 3176 3177 3177 3178 3178 3178 3178 3178
3126 3126 3127 3127 3128 3128 3127 3127 3128 3129 3130 3131 3132 3133 3134 3134 3136 3137 3138 3139 3140 3141 3142 3144 3145 3146 3147 3148 3148 3148 3149 3150 3150 3151 3152 3153 3153 3154 3154 3154 3155 3157 3157 3158 3158 3158 3159 3160 3161 3161 3161 3162 3163 3164 3164 3165 3165 3165 3166 3166 3166 3168 3170 3171 3169 3168 3169 3170 3170 3171 3172 3173 3173 3174 3174 3175 3175 3176 3176 3177 3177 3177 3178 3177 3178
3125 3126 3126 3126 3127 3127 3126 3126 3127 3128 3129 3130 3131 3132 3133 3134 3136 3137 3138 3139 3140 3141 3142 3143 3144 3146 3146 3147 3148 3148 3149 3149 3150 3150 3151 3152 3153 3153 3154 3154 3155 3156 3157 3158 3158 3158 3158 3159 3160 3161 3161 3161 3162 3163 3164 3164 3165 3165 3165 3166 3166 3168 3170 3170 3167 3167 3170 3170 3169 3171 3172 3173 3173 3173 3174 3175 3175 3175 3176 3176 3176 3177 3177 3177 3177
3123 3124 3123 3123 3124 3124 3125 3125 3126 3127 3129 3130 3131 3132 3133 3134 3136 3137 3138 3139 3140 3141 3142 3143 3144 3145 3146 3147 3148 3148 3149 3149 3149 3150 3150 3151 3152 3153 3153 3154 3155 3156 3157 3158 3158 3158 3158 3159 3160 3160 3160 3161 3161 3162 3163 3164 3164 3165 3165 3165 3166 3167 3169 3169 3167 3168 3170 3169 3169 3171 3171 3172 3172 3173 3173 3174 3174 3175 3175 3175 3176 3177 3177 3177 3177
3121 3121 3121 3122 3122 3122 3124 3124 3125 3127 3128 3130 3131 3132 3133 3135 3136 3137 3138 3139 3140 3141 3142 3143 3145 3146 3146 3147 3148 3148 3149 3149 3150 3150 3151 3151 3152 3152 3153 3154 3155 3156 3156 3157 3157 3157 3158 3158 3159 3160 3160 3161 3161 3162 3163 3163 3164 3164 3165 3165 3166 3167 3168 3168 3167 3169 3169 3169 3169 3170 3171 3171 3171 3172 3173 3173 3174 3174 3174 3175 3175 3176 3176 3176 3176
3120 3119 3120 3120 3121 3122 3123 3124 3125 3126 3128 3129 3130 3132 3133 3134 3135 3136 3137 3139 3140 3141 3143 3144 3145 3146 3147 3147 3148 3149 3149 3149 3150 3150 3151 3151 3152 3152 3153 3154 3154 3155 3156 3157 3157 3157 3157 3158 3159 3159 3160 3160 3161 3161 3162 3163 3163 3164 3164 3165 3165 3166 3167 3167 3167 3168 3168 3168 3170 3171 3172 3171 3171 3172 3173 3173 3173 3174 3174 3174 3175 3175 3175 3175 3176
3119 3119 3119 3119 3120 3121 3122 3123 3124 3126 3127 3129 3130 3131 3132 3133 3134 3136 3137 3138 3140 3142 3143 3145 3146 3146 3147 3148 3148 3149 3149 3149 3150 3150 3151 3151 3151 3152 3152 3153 3154 3155 3155 3156 3156 3157 3157 3158 3158 3159 3159 3160 3161 3161 3161 3162 3162 3163 3163 3164 3165 3166 3167 3167 3167 3168 3168 3168 3170 3172 3172 3171 3172 3172 3172 3173 3173 3173 3173 3174 3175 3175 3175 3175 3175
3117 3118 3118 3118 3118 3119 3121 3122 3123 3125 3126 3128 3129 3130 3132 3133 3134 3136 3137 3139 3141 3142 3144 3145 3146 3146 3147 3148 3148 3149 3149 3149 3149 3150 3150 3150 3151 3151 3151 3152 3152 3153 3154 3155 3156 3156 3157 3157 3157 3158 3159 3159 3160 3161 3161 3161 3162 3162 3163 3164 3164 3165 3166 3167 3167 3168 3168 3168 3170 3172 3172 3171 3172 3172 3172 3172 3172 3173 3173 3174 3175 3175 3175 3175 3175
3115 3115 3116 3116 3117 3117 3119 3120 3122 3124 3125 3127 3128 3130 3131 3133 3135 3136 3138 3140 3142 3143 3144 3145 3146 3146 3147 3148 3148 3149 3149 3149 3149 3149 3150 3150 3150 3150 3150 3151 3151 3152 3153 3154 3155 3155 3156 3156 3156 3157 3157 3158 3159 3160 3160 3160 3161 3161 3162 3163 3164 3164 3165 3166 3167 3167 3168 3168 3169 3171 3171 3170 3171 3171 3171 3172 3172 3173 3173 3173 3174 3174 3174 3174 3174
3113 3113 3114 3115 3115 3116 3117 3118 3120 3123 3124 3126 3128 3130 3131 3133 3135 3137 3139 3141 3142 3143 3144 3145 3145 3146 3147 3148 3149 3149 3149 3149 3149 3149 3150 3150 3150 3150 3150 3150 3150 3151 3152 3153 3153 3154 3154 3155 3155 3156 3156 3157 3158 3158 3159 3159 3160 3160 3161 3162 3163 3164 3165 3166 3166 3167 3167 3168 3169 3170 3170 3170 3170 3171 3171 3172 3172 3172 3173 3173 3174 3174 3174 3174 3174
3111 3111 3112 3113 3113 3114 3116 3117 3119 3121 3123 3126 3128 3129 3131 3133 3135 3137 3139 3140 3141 3143 3144 3144 3145 3146 3147 3148 3149 3149 3149 3149 3149 3149 3149 3149 3150 3150 3150 3149 3149 3150 3151 3151 3152 3153 3153 3153 3154 3154 3155 3156 3157 3157 3158 3159 3159 3160 3160 3162 3163 3163 3164 3165 3166 3166 3167 3168 3168 3169 3170 3170 3171 3171 3171 3172 3172 3172 3173 3173 3174 3174 3174 3174 3174
3108 3109 3109 3111 3112 3113 3115 3117 3118 3120 3123 3125 3127 3129 3131 3133 3135 3136 3138 3139 3141 3142 3143 3144 3145 3147 3147 3148 3149 3149 3149 3149 3149 3149 3148 3149 3149 3149 3149 3149 3149 3149 3149 3150 3151 3151 3152 3152 3153 3153 3154 3155 3156 3157 3157 3158 3159 3159 3160 3161 3162 3163 3164 3164 3165 3166 3166 3167 3168 3168 3169 3170 3171 3171 3171 3172 3172 3172 3173 3173 3173 3173 3173 3173 3173
3106 3106 3107 3108 3110 3112 3114 3116 3117 3119 3122 3125 3127 3129 3131 3133 3134 3136 3137 3139 3141 3142 3143 3144 3145 3146 3147 3148 3148 3148 3148 3149 3148 3148 3148 3148 3149 3149 3149 3148 3148 3148 3148 3149 3149 3150 3150 3151 3151 3152 3153 3154 3154 3155 3156 3157 3158 3158 3159 3160 3161 3162 3163 3163 3164 3165 3165 3166 3167 3168 3168 3169 3170 3170 3171 3171 3171 3171 3172 3172 3172 3172 3172 3172 3172
3104 3104 3105 3107 3109 3111 3113 3115 3116 3118 3121 3124 3127 3129 3131 3133 3134 3135 3137 3139 3141 3142 3143 3144 3145 3146 3147 3147 3147 3148 3148 3148 3148 3148 3148 3148 3148 3148 3148 3147 3147 3147 3147 3148 3148 3149 3149 3150 3150 3151 3152 3153 3153 3154 3155 3155 3156 3157 3158 3159 3160 3161 3162 3163 3163 3164 3164 3165 3166 3167 3168 3168 3169 3170 3170 3171 3171 3171 3171 3171 3170 3170 3170 3171 3171